owner,sensor,date,latitude,longitude,vertical_datum,wind_speed,wind_to_direction,wind_speed_of_gust,qcFlag 
TCOON,ioos:station:TCOON:009:1,2016-02-01T00:30:00Z,27.8398,-97.0727,0.0,2.9,157.0,4.7,'11111222,11111222,11111222' 
TCOON,ioos:station:TCOON:009:1,2016-02-01T00:36:00Z,27.8398,-97.0727,0.0,2.8,151.0,4.3,'11111222,11111222,11111222' 
TCOON,ioos:station:TCOON:009:1,2016-02-01T00:42:00Z,27.8398,-97.0727,0.0,2.9,150.0,5.3,'11111222,11111222,11111222' 
TCOON,ioos:station:TCOON:009:1,2016-02-01T00:48:00Z,27.8398,-97.0727,0.0,3.2,155.0,4.8,'11111222,11111222,11111222' 
TCOON,ioos:station:TCOON:009:1,2016-02-01T00:54:00Z,27.8398,-97.0727,0.0,2.6,155.0,4.8,'11111222,11111222,11111222' 
TCOON,ioos:station:TCOON:009:1,2016-02-01T01:00:00Z,27.8398,-97.0727,0.0,3.4,151.0,4.8,'11111222,11111222,11111222' 
TCOON,ioos:station:TCOON:009:1,2016-02-01T01:06:00Z,27.8398,-97.0727,0.0,3.0,148.0,4.4,'11111222,11111222,11111222' 
TCOON,ioos:station:TCOON:009:1,2016-02-01T01:12:00Z,27.8398,-97.0727,0.0,2.6,149.0,4.1,'11111222,11111222,11111222' 
TCOON,ioos:station:TCOON:009:1,2016-02-01T01:18:00Z,27.8398,-97.0727,0.0,2.9,145.0,4.3,'11111222,11111222,11111222' 
TCOON,ioos:station:TCOON:009:1,2016-02-01T01:24:00Z,27.8398,-97.0727,0.0,2.2,145.0,4.4,'11111222,11111222,11111222' 
TCOON,ioos:station:TCOON:009:1,2016-02-01T01:30:00Z,27.8398,-97.0727,0.0,3.2,157.0,4.4,'11111222,11111222,11111222' 
TCOON,ioos:station:TCOON:009:1,2016-02-01T01:36:00Z,27.8398,-97.0727,0.0,3.0,149.0,4.9,'11111222,11111222,11111222' 
TCOON,ioos:station:TCOON:009:1,2016-02-01T01:42:00Z,27.8398,-97.0727,0.0,2.6,148.0,4.2,'11111222,11111222,11111222' 
TCOON,ioos:station:TCOON:009:1,2016-02-01T01:48:00Z,27.8398,-97.0727,0.0,3.2,153.0,5.0,'11111222,11111222,11111222' 
TCOON,ioos:station:TCOON:009:1,2016-02-01T01:54:00Z,27.8398,-97.0727,0.0,2.5,151.0,5.4,'11111222,11111222,11111222' 
TCOON,ioos:station:TCOON:009:1,2016-02-01T02:00:00Z,27.8398,-97.0727,0.0,3.2,145.0,5.2,'11111222,11111222,11111222' 
TCOON,ioos:station:TCOON:009:1,2016-02-01T02:06:00Z,27.8398,-97.0727,0.0,3.0,150.0,5.3,'11111222,11111222,11111222' 
TCOON,ioos:station:TCOON:009:1,2016-02-01T02:12:00Z,27.8398,-97.0727,0.0,3.1,151.0,5.1,'11111222,11111222,11111222' 
TCOON,ioos:station:TCOON:009:1,2016-02-01T02:18:00Z,27.8398,-97.0727,0.0,3.6,153.0,4.8,'11111222,11111222,11111222' 
TCOON,ioos:station:TCOON:009:1,2016-02-01T02:24:00Z,27.8398,-97.0727,0.0,2.8,155.0,4.5,'11111222,11111222,11111222' 
TCOON,ioos:station:TCOON:009:1,2016-02-01T02:30:00Z,27.8398,-97.0727,0.0,2.8,145.0,4.5,'11111222,11111222,11111222' 
TCOON,ioos:station:TCOON:009:1,2016-02-01T02:36:00Z,27.8398,-97.0727,0.0,3.2,144.0,4.6,'11111222,11111222,11111222' 
TCOON,ioos:station:TCOON:009:1,2016-02-01T02:42:00Z,27.8398,-97.0727,0.0,2.3,150.0,4.5,'11111222,11111222,11111222' 
TCOON,ioos:station:TCOON:009:1,2016-02-01T02:48:00Z,27.8398,-97.0727,0.0,3.4,145.0,4.9,'11111222,11111222,11111222' 
TCOON,ioos:station:TCOON:009:1,2016-02-01T02:54:00Z,27.8398,-97.0727,0.0,3.5,148.0,5.6,'11111222,11111222,11111222' 
TCOON,ioos:station:TCOON:009:1,2016-02-01T03:00:00Z,27.8398,-97.0727,0.0,3.4,150.0,5.2,'11111222,11111222,11111222' 
TCOON,ioos:station:TCOON:009:1,2016-02-01T03:06:00Z,27.8398,-97.0727,0.0,3.2,144.0,5.4,'11111222,11111222,11111222' 
TCOON,ioos:station:TCOON:009:1,2016-02-01T03:12:00Z,27.8398,-97.0727,0.0,3.6,149.0,5.0,'11111222,11111222,11111222' 
TCOON,ioos:station:TCOON:009:1,2016-02-01T03:18:00Z,27.8398,-97.0727,0.0,3.2,148.0,5.4,'11111222,11111222,11111222' 
TCOON,ioos:station:TCOON:009:1,2016-02-01T03:24:00Z,27.8398,-97.0727,0.0,3.1,149.0,4.7,'11111222,11111222,11111222' 
TCOON,ioos:station:TCOON:009:1,2016-02-01T03:30:00Z,27.8398,-97.0727,0.0,2.4,155.0,4.9,'11111222,11111222,11111222' 
TCOON,ioos:station:TCOON:009:1,2016-02-01T03:36:00Z,27.8398,-97.0727,0.0,3.3,151.0,6.0,'11111222,11111222,11111222' 
TCOON,ioos:station:TCOON:009:1,2016-02-01T03:42:00Z,27.8398,-97.0727,0.0,2.8,151.0,4.9,'11111222,11111222,11111222' 
TCOON,ioos:station:TCOON:009:1,2016-02-01T03:48:00Z,27.8398,-97.0727,0.0,4.0,147.0,5.8,'11111222,11111222,11111222' 
TCOON,ioos:station:TCOON:009:1,2016-02-01T03:54:00Z,27.8398,-97.0727,0.0,4.0,151.0,5.7,'11111222,11111222,11111222' 
TCOON,ioos:station:TCOON:009:1,2016-02-01T04:00:00Z,27.8398,-97.0727,0.0,3.5,153.0,5.0,'11111222,11111222,11111222' 
TCOON,ioos:station:TCOON:009:1,2016-02-01T04:06:00Z,27.8398,-97.0727,0.0,3.2,155.0,5.5,'11111222,11111222,11111222' 
TCOON,ioos:station:TCOON:009:1,2016-02-01T04:12:00Z,27.8398,-97.0727,0.0,3.9,154.0,5.1,'11111222,11111222,11111222' 
TCOON,ioos:station:TCOON:009:1,2016-02-01T04:18:00Z,27.8398,-97.0727,0.0,3.5,153.0,6.1,'11111222,11111222,11111222' 
TCOON,ioos:station:TCOON:009:1,2016-02-01T04:24:00Z,27.8398,-97.0727,0.0,3.6,153.0,6.7,'11111222,11111222,11111222' 
TCOON,ioos:station:TCOON:009:1,2016-02-01T04:30:00Z,27.8398,-97.0727,0.0,4.1,159.0,6.3,'11111222,11111222,11111222' 
TCOON,ioos:station:TCOON:009:1,2016-02-01T04:36:00Z,27.8398,-97.0727,0.0,5.0,163.0,6.5,'11111222,11111222,11111222' 
TCOON,ioos:station:TCOON:009:1,2016-02-01T04:42:00Z,27.8398,-97.0727,0.0,4.4,164.0,6.3,'11111222,11111222,11111222' 
TCOON,ioos:station:TCOON:009:1,2016-02-01T04:48:00Z,27.8398,-97.0727,0.0,4.9,169.0,7.5,'11111222,11111222,11111222' 
TCOON,ioos:station:TCOON:009:1,2016-02-01T04:54:00Z,27.8398,-97.0727,0.0,4.4,172.0,6.7,'11111222,11111222,11111222' 
TCOON,ioos:station:TCOON:009:1,2016-02-01T05:00:00Z,27.8398,-97.0727,0.0,4.2,175.0,6.9,'11111222,11111222,11111222' 
TCOON,ioos:station:TCOON:009:1,2016-02-01T05:18:00Z,27.8398,-97.0727,0.0,4.1,170.0,6.6,'11111222,11111222,11111222' 
TCOON,ioos:station:TCOON:009:1,2016-02-01T05:24:00Z,27.8398,-97.0727,0.0,4.1,170.0,6.8,'11111222,11111222,11111222' 
TCOON,ioos:station:TCOON:009:1,2016-02-01T05:30:00Z,27.8398,-97.0727,0.0,4.3,168.0,6.3,'11111222,11111222,11111222' 
TCOON,ioos:station:TCOON:009:1,2016-02-01T05:36:00Z,27.8398,-97.0727,0.0,4.3,169.0,7.2,'11111222,11111222,11111222' 
TCOON,ioos:station:TCOON:009:1,2016-02-01T05:42:00Z,27.8398,-97.0727,0.0,3.7,172.0,7.0,'11111222,11111222,11111222' 
TCOON,ioos:station:TCOON:009:1,2016-02-01T05:48:00Z,27.8398,-97.0727,0.0,3.6,168.0,6.1,'11111222,11111222,11111222' 
TCOON,ioos:station:TCOON:009:1,2016-02-01T05:54:00Z,27.8398,-97.0727,0.0,4.2,169.0,5.9,'11111222,11111222,11111222' 
TCOON,ioos:station:TCOON:009:1,2016-02-01T06:00:00Z,27.8398,-97.0727,0.0,4.7,169.0,6.3,'11111222,11111222,11111222' 
TCOON,ioos:station:TCOON:009:1,2016-02-01T06:06:00Z,27.8398,-97.0727,0.0,3.7,164.0,6.0,'11111222,11111222,11111222' 
TCOON,ioos:station:TCOON:009:1,2016-02-01T06:12:00Z,27.8398,-97.0727,0.0,3.9,167.0,5.6,'11111222,11111222,11111222' 
TCOON,ioos:station:TCOON:009:1,2016-02-01T06:18:00Z,27.8398,-97.0727,0.0,3.2,169.0,5.1,'11111222,11111222,11111222' 
TCOON,ioos:station:TCOON:009:1,2016-02-01T06:24:00Z,27.8398,-97.0727,0.0,4.7,172.0,6.1,'11111222,11111222,11111222' 
TCOON,ioos:station:TCOON:009:1,2016-02-01T06:30:00Z,27.8398,-97.0727,0.0,5.3,169.0,6.9,'11111222,11111222,11111222' 
TCOON,ioos:station:TCOON:009:1,2016-02-01T06:36:00Z,27.8398,-97.0727,0.0,4.4,166.0,6.6,'11111222,11111222,11111222' 
TCOON,ioos:station:TCOON:009:1,2016-02-01T06:42:00Z,27.8398,-97.0727,0.0,4.6,167.0,6.3,'11111222,11111222,11111222' 
TCOON,ioos:station:TCOON:009:1,2016-02-01T06:48:00Z,27.8398,-97.0727,0.0,3.0,163.0,6.9,'11111222,11111222,11111222' 
TCOON,ioos:station:TCOON:009:1,2016-02-01T06:54:00Z,27.8398,-97.0727,0.0,3.4,160.0,5.5,'11111222,11111222,11111222' 
TCOON,ioos:station:TCOON:009:1,2016-02-01T07:00:00Z,27.8398,-97.0727,0.0,3.5,166.0,5.5,'11111222,11111222,11111222' 
TCOON,ioos:station:TCOON:009:1,2016-02-01T07:06:00Z,27.8398,-97.0727,0.0,4.1,168.0,6.0,'11111222,11111222,11111222' 
TCOON,ioos:station:TCOON:009:1,2016-02-01T07:12:00Z,27.8398,-97.0727,0.0,3.3,172.0,6.4,'11111222,11111222,11111222' 
TCOON,ioos:station:TCOON:009:1,2016-02-01T07:18:00Z,27.8398,-97.0727,0.0,4.6,174.0,6.6,'11111222,11111222,11111222' 
TCOON,ioos:station:TCOON:009:1,2016-02-01T07:24:00Z,27.8398,-97.0727,0.0,4.1,176.0,5.9,'11111222,11111222,11111222' 
TCOON,ioos:station:TCOON:009:1,2016-02-01T07:30:00Z,27.8398,-97.0727,0.0,4.2,173.0,6.4,'11111222,11111222,11111222' 
TCOON,ioos:station:TCOON:009:1,2016-02-01T07:36:00Z,27.8398,-97.0727,0.0,4.1,176.0,7.0,'11111222,11111222,11111222' 
TCOON,ioos:station:TCOON:009:1,2016-02-01T07:42:00Z,27.8398,-97.0727,0.0,4.9,175.0,6.4,'11111222,11111222,11111222' 
TCOON,ioos:station:TCOON:009:1,2016-02-01T07:48:00Z,27.8398,-97.0727,0.0,3.8,179.0,7.1,'11111222,11111222,11111222' 
TCOON,ioos:station:TCOON:009:1,2016-02-01T07:54:00Z,27.8398,-97.0727,0.0,4.2,177.0,6.7,'11111222,11111222,11111222' 
TCOON,ioos:station:TCOON:009:1,2016-02-01T08:00:00Z,27.8398,-97.0727,0.0,4.4,181.0,6.7,'11111222,11111222,11111222' 
TCOON,ioos:station:TCOON:009:1,2016-02-01T08:06:00Z,27.8398,-97.0727,0.0,4.7,181.0,6.6,'11111222,11111222,11111222' 
TCOON,ioos:station:TCOON:009:1,2016-02-01T08:12:00Z,27.8398,-97.0727,0.0,3.8,187.0,6.7,'11111222,11111222,11111222' 
TCOON,ioos:station:TCOON:009:1,2016-02-01T08:18:00Z,27.8398,-97.0727,0.0,3.9,182.0,6.8,'11111222,11111222,11111222' 
TCOON,ioos:station:TCOON:009:1,2016-02-01T08:24:00Z,27.8398,-97.0727,0.0,4.9,177.0,7.2,'11111222,11111222,11111222' 
TCOON,ioos:station:TCOON:009:1,2016-02-01T08:30:00Z,27.8398,-97.0727,0.0,4.9,180.0,8.0,'11111222,11111222,11111222' 
TCOON,ioos:station:TCOON:009:1,2016-02-01T08:36:00Z,27.8398,-97.0727,0.0,5.0,179.0,8.1,'11111222,11111222,11111222' 
TCOON,ioos:station:TCOON:009:1,2016-02-01T08:42:00Z,27.8398,-97.0727,0.0,4.8,181.0,7.8,'11111222,11111222,11111222' 
TCOON,ioos:station:TCOON:009:1,2016-02-01T08:48:00Z,27.8398,-97.0727,0.0,6.2,177.0,8.4,'11111222,11111222,11111222' 
TCOON,ioos:station:TCOON:009:1,2016-02-01T08:54:00Z,27.8398,-97.0727,0.0,5.5,179.0,8.1,'11111222,11111222,11111222' 
TCOON,ioos:station:TCOON:009:1,2016-02-01T09:00:00Z,27.8398,-97.0727,0.0,6.5,176.0,9.4,'11111222,11111222,11111222' 
TCOON,ioos:station:TCOON:009:1,2016-02-01T09:06:00Z,27.8398,-97.0727,0.0,5.4,179.0,7.4,'11111222,11111222,11111222' 
TCOON,ioos:station:TCOON:009:1,2016-02-01T09:12:00Z,27.8398,-97.0727,0.0,5.5,178.0,8.1,'11111222,11111222,11111222' 
TCOON,ioos:station:TCOON:009:1,2016-02-01T09:18:00Z,27.8398,-97.0727,0.0,4.4,181.0,7.9,'11111222,11111222,11111222' 
TCOON,ioos:station:TCOON:009:1,2016-02-01T09:24:00Z,27.8398,-97.0727,0.0,5.9,176.0,8.0,'11111222,11111222,11111222' 
TCOON,ioos:station:TCOON:009:1,2016-02-01T09:30:00Z,27.8398,-97.0727,0.0,5.4,177.0,7.9,'11111222,11111222,11111222' 
TCOON,ioos:station:TCOON:009:1,2016-02-01T09:36:00Z,27.8398,-97.0727,0.0,99.0,-9999.0,99.0,'11144222,99999999,11144222' 
TCOON,ioos:station:TCOON:009:1,2016-02-01T09:42:00Z,27.8398,-97.0727,0.0,99.0,-9999.0,99.0,'11144222,99999999,11144222' 
TCOON,ioos:station:TCOON:009:1,2016-02-01T09:48:00Z,27.8398,-97.0727,0.0,99.0,-9999.0,99.0,'11144222,99999999,11144222' 
TCOON,ioos:station:TCOON:009:1,2016-02-01T09:54:00Z,27.8398,-97.0727,0.0,99.0,-9999.0,99.0,'11144222,99999999,11144222' 
TCOON,ioos:station:TCOON:009:1,2016-02-01T10:00:00Z,27.8398,-97.0727,0.0,99.0,-9999.0,99.0,'11144222,99999999,11144222' 
TCOON,ioos:station:TCOON:009:1,2016-02-01T10:06:00Z,27.8398,-97.0727,0.0,4.7,186.0,7.1,'11111222,11111222,11111222' 
TCOON,ioos:station:TCOON:009:1,2016-02-01T10:12:00Z,27.8398,-97.0727,0.0,4.7,180.0,6.5,'11111222,11111222,11111222' 
TCOON,ioos:station:TCOON:009:1,2016-02-01T10:18:00Z,27.8398,-97.0727,0.0,3.7,184.0,6.3,'11111222,11111222,11111222' 
TCOON,ioos:station:TCOON:009:1,2016-02-01T10:24:00Z,27.8398,-97.0727,0.0,4.9,179.0,7.7,'11111222,11111222,11111222' 
TCOON,ioos:station:TCOON:009:1,2016-02-01T10:30:00Z,27.8398,-97.0727,0.0,4.7,186.0,7.5,'11111222,11111222,11111222' 
TCOON,ioos:station:TCOON:009:1,2016-02-01T10:36:00Z,27.8398,-97.0727,0.0,4.0,176.0,6.5,'11111222,11111222,11111222' 
TCOON,ioos:station:TCOON:009:1,2016-02-01T10:42:00Z,27.8398,-97.0727,0.0,5.9,172.0,8.1,'11111222,11111222,11111222' 
TCOON,ioos:station:TCOON:009:1,2016-02-01T10:48:00Z,27.8398,-97.0727,0.0,4.9,182.0,8.5,'11111222,11111222,11111222' 
TCOON,ioos:station:TCOON:009:1,2016-02-01T10:54:00Z,27.8398,-97.0727,0.0,4.0,175.0,6.2,'11111222,11111222,11111222' 
TCOON,ioos:station:TCOON:009:1,2016-02-01T11:00:00Z,27.8398,-97.0727,0.0,4.6,176.0,5.9,'11111222,11111222,11111222' 
TCOON,ioos:station:TCOON:009:1,2016-02-01T11:06:00Z,27.8398,-97.0727,0.0,4.2,179.0,5.8,'11111222,11111222,11111222' 
TCOON,ioos:station:TCOON:009:1,2016-02-01T11:12:00Z,27.8398,-97.0727,0.0,5.1,178.0,7.2,'11111222,11111222,11111222' 
TCOON,ioos:station:TCOON:009:1,2016-02-01T11:18:00Z,27.8398,-97.0727,0.0,4.2,180.0,7.3,'11111222,11111222,11111222' 
TCOON,ioos:station:TCOON:009:1,2016-02-01T11:24:00Z,27.8398,-97.0727,0.0,3.2,183.0,6.4,'11111222,11111222,11111222' 
TCOON,ioos:station:TCOON:009:1,2016-02-01T11:30:00Z,27.8398,-97.0727,0.0,4.2,181.0,6.7,'11111222,11111222,11111222' 
TCOON,ioos:station:TCOON:009:1,2016-02-01T11:36:00Z,27.8398,-97.0727,0.0,4.1,175.0,5.3,'11111222,11111222,11111222' 
TCOON,ioos:station:TCOON:009:1,2016-02-01T11:42:00Z,27.8398,-97.0727,0.0,4.5,177.0,6.1,'11111222,11111222,11111222' 
TCOON,ioos:station:TCOON:009:1,2016-02-01T11:48:00Z,27.8398,-97.0727,0.0,4.8,179.0,7.0,'11111222,11111222,11111222' 
TCOON,ioos:station:TCOON:009:1,2016-02-01T11:54:00Z,27.8398,-97.0727,0.0,4.6,179.0,6.4,'11111222,11111222,11111222' 
TCOON,ioos:station:TCOON:009:1,2016-02-01T12:00:00Z,27.8398,-97.0727,0.0,4.5,181.0,6.4,'11111222,11111222,11111222' 
TCOON,ioos:station:TCOON:009:1,2016-02-01T12:06:00Z,27.8398,-97.0727,0.0,4.3,185.0,6.0,'11111222,11111222,11111222' 
TCOON,ioos:station:TCOON:009:1,2016-02-01T12:12:00Z,27.8398,-97.0727,0.0,4.2,183.0,5.7,'11111222,11111222,11111222' 
TCOON,ioos:station:TCOON:009:1,2016-02-01T12:18:00Z,27.8398,-97.0727,0.0,4.3,180.0,6.6,'11111222,11111222,11111222' 
TCOON,ioos:station:TCOON:009:1,2016-02-01T12:24:00Z,27.8398,-97.0727,0.0,3.8,172.0,5.9,'11111222,11111222,11111222' 
TCOON,ioos:station:TCOON:009:1,2016-02-01T12:30:00Z,27.8398,-97.0727,0.0,4.5,172.0,6.6,'11111222,11111222,11111222' 
TCOON,ioos:station:TCOON:009:1,2016-02-01T12:36:00Z,27.8398,-97.0727,0.0,4.0,169.0,6.3,'11111222,11111222,11111222' 
TCOON,ioos:station:TCOON:009:1,2016-02-01T12:42:00Z,27.8398,-97.0727,0.0,4.5,170.0,6.0,'11111222,11111222,11111222' 
TCOON,ioos:station:TCOON:009:1,2016-02-01T12:48:00Z,27.8398,-97.0727,0.0,4.4,168.0,5.7,'11111222,11111222,11111222' 
TCOON,ioos:station:TCOON:009:1,2016-02-01T12:54:00Z,27.8398,-97.0727,0.0,3.9,175.0,5.6,'11111222,11111222,11111222' 
TCOON,ioos:station:TCOON:009:1,2016-02-01T13:00:00Z,27.8398,-97.0727,0.0,3.6,170.0,5.6,'11111222,11111222,11111222' 
TCOON,ioos:station:TCOON:009:1,2016-02-01T13:06:00Z,27.8398,-97.0727,0.0,3.4,175.0,4.4,'11111222,11111222,11111222' 
TCOON,ioos:station:TCOON:009:1,2016-02-01T13:12:00Z,27.8398,-97.0727,0.0,3.6,172.0,4.5,'11111222,11111222,11111222' 
TCOON,ioos:station:TCOON:009:1,2016-02-01T13:18:00Z,27.8398,-97.0727,0.0,4.0,172.0,4.8,'11111222,11111222,11111222' 
TCOON,ioos:station:TCOON:009:1,2016-02-01T13:24:00Z,27.8398,-97.0727,0.0,3.3,169.0,5.7,'11111222,11111222,11111222' 
TCOON,ioos:station:TCOON:009:1,2016-02-01T13:30:00Z,27.8398,-97.0727,0.0,3.0,161.0,4.4,'11111222,11111222,11111222' 
TCOON,ioos:station:TCOON:009:1,2016-02-01T13:36:00Z,27.8398,-97.0727,0.0,3.4,165.0,4.4,'11111222,11111222,11111222' 
TCOON,ioos:station:TCOON:009:1,2016-02-01T13:42:00Z,27.8398,-97.0727,0.0,2.7,162.0,4.4,'11111222,11111222,11111222' 
TCOON,ioos:station:TCOON:009:1,2016-02-01T13:48:00Z,27.8398,-97.0727,0.0,2.8,157.0,5.2,'11111222,11111222,11111222' 
TCOON,ioos:station:TCOON:009:1,2016-02-01T13:54:00Z,27.8398,-97.0727,0.0,2.7,148.0,4.2,'11111222,11111222,11111222' 
TCOON,ioos:station:TCOON:009:1,2016-02-01T14:00:00Z,27.8398,-97.0727,0.0,3.6,138.0,5.3,'11111222,11111222,11111222' 
TCOON,ioos:station:TCOON:009:1,2016-02-01T14:06:00Z,27.8398,-97.0727,0.0,2.9,142.0,5.3,'11111222,11111222,11111222' 
TCOON,ioos:station:TCOON:009:1,2016-02-01T14:12:00Z,27.8398,-97.0727,0.0,3.0,140.0,4.7,'11111222,11111222,11111222' 
TCOON,ioos:station:TCOON:009:1,2016-02-01T14:18:00Z,27.8398,-97.0727,0.0,3.7,146.0,5.6,'11111222,11111222,11111222' 
TCOON,ioos:station:TCOON:009:1,2016-02-01T14:30:00Z,27.8398,-97.0727,0.0,3.8,140.0,5.6,'11111222,11111222,11111222' 
TCOON,ioos:station:TCOON:009:1,2016-02-01T14:36:00Z,27.8398,-97.0727,0.0,3.6,138.0,5.6,'11111222,11111222,11111222' 
TCOON,ioos:station:TCOON:009:1,2016-02-01T14:42:00Z,27.8398,-97.0727,0.0,3.7,139.0,5.8,'11111222,11111222,11111222' 
TCOON,ioos:station:TCOON:009:1,2016-02-01T14:48:00Z,27.8398,-97.0727,0.0,2.9,140.0,7.2,'11111222,11111222,11111222' 
TCOON,ioos:station:TCOON:009:1,2016-02-01T14:54:00Z,27.8398,-97.0727,0.0,4.0,143.0,7.9,'11111222,11111222,11111222' 
TCOON,ioos:station:TCOON:009:1,2016-02-01T15:00:00Z,27.8398,-97.0727,0.0,4.1,148.0,5.8,'11111222,11111222,11111222' 
TCOON,ioos:station:TCOON:009:1,2016-02-01T15:06:00Z,27.8398,-97.0727,0.0,4.0,150.0,8.0,'11111222,11111222,11111222' 
TCOON,ioos:station:TCOON:009:1,2016-02-01T15:12:00Z,27.8398,-97.0727,0.0,3.7,143.0,6.9,'11111222,11111222,11111222' 
TCOON,ioos:station:TCOON:009:1,2016-02-01T15:18:00Z,27.8398,-97.0727,0.0,4.8,145.0,7.0,'11111222,11111222,11111222' 
TCOON,ioos:station:TCOON:009:1,2016-02-01T15:24:00Z,27.8398,-97.0727,0.0,4.6,152.0,6.8,'11111222,11111222,11111222' 
TCOON,ioos:station:TCOON:009:1,2016-02-01T15:30:00Z,27.8398,-97.0727,0.0,3.8,152.0,6.6,'11111222,11111222,11111222' 
TCOON,ioos:station:TCOON:009:1,2016-02-01T15:36:00Z,27.8398,-97.0727,0.0,3.4,152.0,5.7,'11111222,11111222,11111222' 
TCOON,ioos:station:TCOON:009:1,2016-02-01T15:42:00Z,27.8398,-97.0727,0.0,3.4,152.0,5.7,'1111122,1111122,1111122' 
TCOON,ioos:station:TCOON:009:1,2016-02-01T15:48:00Z,27.8398,-97.0727,0.0,4.8,162.0,7.3,'11111222,11111222,11111222' 
TCOON,ioos:station:TCOON:009:1,2016-02-01T15:54:00Z,27.8398,-97.0727,0.0,5.8,163.0,7.1,'11111222,11111222,11111222' 
TCOON,ioos:station:TCOON:009:1,2016-02-01T16:00:00Z,27.8398,-97.0727,0.0,4.0,166.0,6.3,'11111222,11111222,11111222' 
TCOON,ioos:station:TCOON:009:1,2016-02-01T16:06:00Z,27.8398,-97.0727,0.0,4.7,163.0,6.8,'11111222,11111222,11111222' 
TCOON,ioos:station:TCOON:009:1,2016-02-01T16:12:00Z,27.8398,-97.0727,0.0,3.8,168.0,7.4,'11111222,11111222,11111222' 
TCOON,ioos:station:TCOON:009:1,2016-02-01T16:18:00Z,27.8398,-97.0727,0.0,6.3,166.0,8.8,'11111222,11111222,11111222' 
TCOON,ioos:station:TCOON:009:1,2016-02-01T16:24:00Z,27.8398,-97.0727,0.0,5.5,167.0,7.5,'11111222,11111222,11111222' 
TCOON,ioos:station:TCOON:009:1,2016-02-01T16:30:00Z,27.8398,-97.0727,0.0,6.8,170.0,8.4,'11111222,11111222,11111222' 
TCOON,ioos:station:TCOON:009:1,2016-02-01T16:36:00Z,27.8398,-97.0727,0.0,7.0,165.0,9.9,'11111222,11111222,11111222' 
TCOON,ioos:station:TCOON:009:1,2016-02-01T16:42:00Z,27.8398,-97.0727,0.0,6.0,168.0,9.3,'11111222,11111222,11111222' 
TCOON,ioos:station:TCOON:009:1,2016-02-01T16:48:00Z,27.8398,-97.0727,0.0,6.0,168.0,9.3,'1111122,1111122,1111122' 
TCOON,ioos:station:TCOON:009:1,2016-02-01T16:54:00Z,27.8398,-97.0727,0.0,5.8,163.0,8.9,'11111222,11111222,11111222' 
TCOON,ioos:station:TCOON:009:1,2016-02-01T17:00:00Z,27.8398,-97.0727,0.0,5.4,165.0,8.9,'11111222,11111222,11111222' 
TCOON,ioos:station:TCOON:009:1,2016-02-01T17:06:00Z,27.8398,-97.0727,0.0,5.3,162.0,8.3,'11111222,11111222,11111222' 
TCOON,ioos:station:TCOON:009:1,2016-02-01T17:12:00Z,27.8398,-97.0727,0.0,6.0,168.0,8.9,'11111222,11111222,11111222' 
TCOON,ioos:station:TCOON:009:1,2016-02-01T17:18:00Z,27.8398,-97.0727,0.0,6.0,167.0,8.1,'11111222,11111222,11111222' 
TCOON,ioos:station:TCOON:009:1,2016-02-01T17:30:00Z,27.8398,-97.0727,0.0,6.8,168.0,8.5,'11111222,11111222,11111222' 
TCOON,ioos:station:TCOON:009:1,2016-02-01T17:36:00Z,27.8398,-97.0727,0.0,3.7,157.0,8.0,'11111222,11111222,11111222' 
TCOON,ioos:station:TCOON:009:1,2016-02-01T17:42:00Z,27.8398,-97.0727,0.0,3.7,157.0,9.3,'1111122,1111122,1111122' 
TCOON,ioos:station:TCOON:009:1,2016-02-01T17:48:00Z,27.8398,-97.0727,0.0,5.1,161.0,8.3,'11111222,11111222,11111222' 
TCOON,ioos:station:TCOON:009:1,2016-02-01T17:54:00Z,27.8398,-97.0727,0.0,4.7,154.0,8.4,'11111222,11111222,11111222' 
TCOON,ioos:station:TCOON:009:1,2016-02-01T18:00:00Z,27.8398,-97.0727,0.0,4.8,163.0,9.1,'11111222,11111222,11111222' 
TCOON,ioos:station:TCOON:009:1,2016-02-01T18:06:00Z,27.8398,-97.0727,0.0,4.8,152.0,8.2,'11111222,11111222,11111222' 
TCOON,ioos:station:TCOON:009:1,2016-02-01T18:12:00Z,27.8398,-97.0727,0.0,5.1,155.0,7.9,'11111222,11111222,11111222' 
TCOON,ioos:station:TCOON:009:1,2016-02-01T18:42:00Z,27.8398,-97.0727,0.0,6.1,144.0,8.2,'1111122,1111122,1111122' 
TCOON,ioos:station:TCOON:009:1,2016-02-01T19:06:00Z,27.8398,-97.0727,0.0,4.2,143.0,7.5,'11111222,11111222,11111222' 
TCOON,ioos:station:TCOON:009:1,2016-02-01T19:12:00Z,27.8398,-97.0727,0.0,3.9,145.0,7.8,'11111222,11111222,11111222' 
TCOON,ioos:station:TCOON:009:1,2016-02-01T19:18:00Z,27.8398,-97.0727,0.0,4.7,152.0,7.1,'11111222,11111222,11111222' 
TCOON,ioos:station:TCOON:009:1,2016-02-01T19:24:00Z,27.8398,-97.0727,0.0,5.7,153.0,8.9,'11111222,11111222,11111222' 
TCOON,ioos:station:TCOON:009:1,2016-02-01T19:30:00Z,27.8398,-97.0727,0.0,4.7,151.0,8.8,'11111222,11111222,11111222' 
TCOON,ioos:station:TCOON:009:1,2016-02-01T19:36:00Z,27.8398,-97.0727,0.0,4.7,151.0,8.8,'1111122,1111122,1111122' 
TCOON,ioos:station:TCOON:009:1,2016-02-01T19:42:00Z,27.8398,-97.0727,0.0,4.5,152.0,8.7,'11111222,11111222,11111222' 
TCOON,ioos:station:TCOON:009:1,2016-02-01T19:48:00Z,27.8398,-97.0727,0.0,4.7,156.0,7.7,'11111222,11111222,11111222' 
TCOON,ioos:station:TCOON:009:1,2016-02-01T19:54:00Z,27.8398,-97.0727,0.0,4.0,148.0,7.0,'11111222,11111222,11111222' 
TCOON,ioos:station:TCOON:009:1,2016-02-01T20:00:00Z,27.8398,-97.0727,0.0,3.6,151.0,7.4,'11111222,11111222,11111222' 
TCOON,ioos:station:TCOON:009:1,2016-02-01T20:06:00Z,27.8398,-97.0727,0.0,4.7,139.0,7.8,'11111222,11111222,11111222' 
TCOON,ioos:station:TCOON:009:1,2016-02-01T20:12:00Z,27.8398,-97.0727,0.0,5.7,142.0,7.8,'11111222,11111222,11111222' 
TCOON,ioos:station:TCOON:009:1,2016-02-01T20:18:00Z,27.8398,-97.0727,0.0,5.5,139.0,9.1,'11111222,11111222,11111222' 
TCOON,ioos:station:TCOON:009:1,2016-02-01T20:24:00Z,27.8398,-97.0727,0.0,4.9,141.0,9.3,'11111222,11111222,11111222' 
TCOON,ioos:station:TCOON:009:1,2016-02-01T20:30:00Z,27.8398,-97.0727,0.0,5.8,145.0,8.0,'11111222,11111222,11111222' 
TCOON,ioos:station:TCOON:009:1,2016-02-01T20:36:00Z,27.8398,-97.0727,0.0,5.8,145.0,8.0,'1111122,1111122,1111122' 
TCOON,ioos:station:TCOON:009:1,2016-02-01T20:42:00Z,27.8398,-97.0727,0.0,4.5,143.0,7.3,'11111222,11111222,11111222' 
TCOON,ioos:station:TCOON:009:1,2016-02-01T20:48:00Z,27.8398,-97.0727,0.0,4.9,136.0,7.2,'11111222,11111222,11111222' 
TCOON,ioos:station:TCOON:009:1,2016-02-01T20:54:00Z,27.8398,-97.0727,0.0,4.4,136.0,8.1,'11111222,11111222,11111222' 
TCOON,ioos:station:TCOON:009:1,2016-02-01T21:00:00Z,27.8398,-97.0727,0.0,4.1,143.0,6.9,'11111222,11111222,11111222' 
TCOON,ioos:station:TCOON:009:1,2016-02-01T21:06:00Z,27.8398,-97.0727,0.0,4.9,151.0,8.4,'11111222,11111222,11111222' 
TCOON,ioos:station:TCOON:009:1,2016-02-01T21:12:00Z,27.8398,-97.0727,0.0,4.5,139.0,8.2,'11111222,11111222,11111222' 
TCOON,ioos:station:TCOON:009:1,2016-02-01T21:18:00Z,27.8398,-97.0727,0.0,5.0,141.0,7.9,'11111222,11111222,11111222' 
TCOON,ioos:station:TCOON:009:1,2016-02-01T21:24:00Z,27.8398,-97.0727,0.0,4.4,139.0,9.3,'11111222,11111222,11111222' 
TCOON,ioos:station:TCOON:009:1,2016-02-01T21:30:00Z,27.8398,-97.0727,0.0,5.9,137.0,9.4,'11111222,11111222,11111222' 
TCOON,ioos:station:TCOON:009:1,2016-02-01T21:36:00Z,27.8398,-97.0727,0.0,5.9,137.0,9.4,'1111122,1111122,1111122' 
TCOON,ioos:station:TCOON:009:1,2016-02-01T21:42:00Z,27.8398,-97.0727,0.0,5.0,136.0,8.2,'11111222,11111222,11111222' 
TCOON,ioos:station:TCOON:009:1,2016-02-01T21:48:00Z,27.8398,-97.0727,0.0,5.1,138.0,8.9,'11111222,11111222,11111222' 
TCOON,ioos:station:TCOON:009:1,2016-02-01T21:54:00Z,27.8398,-97.0727,0.0,5.1,142.0,8.1,'11111222,11111222,11111222' 